LKKB Weather Reports


Display with metric or nautical units.
time (UTC)temp
F
wind
direction
speed
MPH
gust
MPH
rain 1hr
in
rain 24hr
in
rain mn
in
humidity
%
barometer
mb
20260905083103 64 250 14.0 0.0 0.00 0.00 0.00 67 1019.0
20260905081855 63 260 14.0 0.0 0.00 0.00 0.00 67
20260905073103 63 240 14.0 0.0 0.00 0.00 0.00 72 1018.0
20260905072157 61 240 12.0 0.0 0.00 0.00 0.00 77
20260905063103 59 230 13.0 0.0 0.00 0.00 0.00 82 1019.0
20260905061856 59 220 12.0 0.0 0.00 0.00 0.00 82
20260905060103 59 220 10.0 0.0 0.00 0.00 0.00 87 1018.0
20260905053103 57 230 12.0 0.0 0.00 0.00 0.00 87 1018.0
20260905051855 57 220 9.0 0.0 0.00 0.00 0.00 87
20260905050103 57 220 9.0 0.0 0.00 0.00 0.00 87 1017.0
20260905043103 57 250 3.0 0.0 0.00 0.00 0.00 87 1017.0
20260905042257 57 220 7.0 0.0 0.00 0.00 0.00 87
20260905033102 59 250 12.0 0.0 0.00 0.00 0.00 77 1017.0
20260905032214 59 250 12.0 0.0 0.00 0.00 0.00 77 1017.0
20260905031856 61 250 14.0 0.0 0.00 0.00 0.00 72
20260905023103 61 250 10.0 0.0 0.00 0.00 0.00 72 1016.0
20260905021856 61 250 12.0 0.0 0.00 0.00 0.00 67
20260905020103 61 250 10.0 0.0 0.00 0.00 0.00 72 1016.0
20260905013104 64 260 10.0 0.0 0.00 0.00 0.00 59 1015.0
20260905012156 64 250 12.0 0.0 0.00 0.00 0.00 63
20260905010103 64 260 12.0 0.0 0.00 0.00 0.00 63 1015.0
20260905003102 64 280 12.0 0.0 0.00 0.00 0.00 63 1015.0
20260905001910 66 290 16.0 0.0 0.00 0.00 0.00 55
20260905000103 66 290 15.0 26.0 0.00 0.00 0.00 59 1015.0
20260904233103 66 300 13.0 0.0 0.00 0.00 0.00 68 1015.0
20260904231941 64 330 9.0 0.0 0.00 0.00 0.00 67
20260904223102 64 20 9.0 0.0 0.00 0.00 0.00 67 1013.0
20260904222328 64 360 7.0 0.0 0.00 0.00 0.00 67
20260904213102 66 360 6.0 0.0 0.00 0.00 0.00 68 1011.0
20260904211912 66 360 7.0 0.0 0.00 0.00 0.00 63
20260904203102 72 360 9.0 0.0 0.00 0.00 0.00 60 1011.0
20260904201911 75 220 12.0 0.0 0.00 0.00 0.00 57
20260904193802 73 230 9.0 0.0 0.00 0.00 0.00 60 1011.0
20260904192157 79 230 9.0 0.0 0.00 0.00 0.00 47
20260904183103 77 230 10.0 0.0 0.00 0.00 0.00 53 1011.0
20260904181911 79 220 12.0 0.0 0.00 0.00 0.00 47
20260904180103 79 220 12.0 0.0 0.00 0.00 0.00 50 1010.0
20260904173103 81 250 14.0 0.0 0.00 0.00 0.00 47 1011.0
20260904171911 82 250 14.0 0.0 0.00 0.00 0.00 42
20260904163103 82 230 16.0 0.0 0.00 0.00 0.00 45 1010.0
20260904162157 82 230 16.0 0.0 0.00 0.00 0.00 42
20260904153103 82 230 17.0 0.0 0.00 0.00 0.00 48 1011.0
20260904151929 82 220 20.0 0.0 0.00 0.00 0.00 45
20260904143102 81 220 18.0 0.0 0.00 0.00 0.00 51 1011.0
20260904141911 81 240 18.0 0.0 0.00 0.00 0.00 47
20260904133102 81 250 18.0 0.0 0.00 0.00 0.00 51 1012.0
20260904132129 81 250 18.0 29.0 0.00 0.00 0.00 47
20260904130211 81 250 20.0 0.0 0.00 0.00 0.00 47 1013.0
20260904123102 81 230 18.0 30.0 0.00 0.00 0.00 51 1013.0
20260904121855 77 240 18.0 0.0 0.00 0.00 0.00 53
20260904120104 77 250 20.0 0.0 0.00 0.00 0.00 57 1014.0
20260904113102 77 240 17.0 0.0 0.00 0.00 0.00 57 1014.0
20260904111856 77 240 22.0 0.0 0.00 0.00 0.00 53
20260904103103 75 240 22.0 0.0 0.00 0.00 0.00 60 1015.0
20260904102312 75 250 22.0 0.0 0.00 0.00 0.00 57
20260904100103 75 250 22.0 0.0 0.00 0.00 0.00 60 1015.0
20260904093103 75 220 16.0 0.0 0.00 0.00 0.00 60 1016.0
20260904091912 73 230 18.0 0.0 0.00 0.00 0.00 60
20260904090103 73 230 16.0 0.0 0.00 0.00 0.00 64 1016.0